Location: Newark
(40.9833°N, 0.0333°W)
Time: 00:43:56
(UTC+00:00)

Vanguard 2 Rocket - All Passes

Search period start: 27 October 2020 00:00
Search period end: 06 November 2020 00:00
Orbit: 554 x 3326 km, 32.9° (Epoch: 26 October)

Date Brightness Start Highest point End Pass type
(mag) Time Alt. Az. Time Alt. Az. Time Alt. Az.
27 Oct - 00:52:35 10° WSW 00:58:38 19° SSW 01:06:50 10° SSE night (unlit)
27 Oct - 17:18:31 10° S 17:20:06 12° SSE 17:21:44 10° SE daylight
27 Oct - 19:28:13 10° SW 19:32:03 32° S 19:37:19 10° ESE visible
27 Oct - 21:39:45 10° WSW 21:44:43 35° S 21:52:36 10° SE night (unlit)
27 Oct - 23:52:40 10° WSW 23:58:25 22° SSW 00:06:42 10° SSE night (unlit)
28 Oct - 18:29:37 10° SW 18:32:57 25° SSE 18:36:56 10° ESE visible
28 Oct - 20:40:58 10° WSW 20:45:16 35° S 20:51:44 10° ESE visible
28 Oct - 22:53:16 10° WSW 22:58:28 25° SSW 23:06:13 10° SSE night (unlit)
29 Oct - 01:11:15 10° SW 01:12:43 10° SSW 01:14:16 10° SSW night (unlit)
29 Oct - 17:31:06 10° SSW 17:33:53 18° SSE 17:36:48 10° ESE visible
29 Oct - 19:42:11 10° WSW 19:45:59 33° S 19:51:12 10° ESE visible
29 Oct - 21:54:09 10° WSW 21:58:46 27° SSW 22:05:38 10° SE night (unlit)
30 Oct - 00:08:50 10° SW 00:12:31 13° SSW 00:17:02 10° S night (unlit)
30 Oct - 16:32:50 10° S 16:34:45 13° SSE 16:36:38 10° SE daylight
30 Oct - 18:43:23 10° SW 18:46:51 29° S 18:51:00 10° ESE visible
30 Oct - 20:55:12 10° WSW 20:59:17 28° S 21:05:09 10° SE visible
30 Oct - 23:08:34 10° SW 23:12:34 16° SSW 23:17:46 10° SSE night (unlit)
31 Oct - 17:44:31 10° SW 17:47:45 24° S 17:51:08 10° ESE visible
31 Oct - 19:56:19 10° WSW 19:59:58 29° S 20:04:52 10° SE visible
31 Oct - 22:09:00 10° WSW 22:12:50 18° SSW 22:17:59 10° SSE night (unlit)
01 Nov - 16:45:33 10° SW 16:48:38 19° SSE 16:51:32 10° ESE daylight
01 Nov - 18:57:21 10° WSW 19:00:48 28° S 19:04:54 10° ESE visible
01 Nov - 21:09:45 10° WSW 21:13:19 20° SSW 21:18:04 10° SSE night (unlit)
02 Nov - 15:46:31 10° SSW 15:49:27 16° SSE 15:52:00 10° SE daylight
02 Nov - 17:58:17 10° SW 18:01:41 27° S 18:05:14 10° ESE visible
02 Nov - 20:10:38 10° WSW 20:13:58 22° S 20:18:13 10° SE visible
02 Nov - 22:25:45 10° SSW 22:26:55 10° SSW 22:28:10 10° S night (unlit)
03 Nov - 14:47:32 10° S 14:50:07 13° SSE 14:52:21 10° SE daylight
03 Nov - 16:58:59 10° SW 17:02:34 25° S 17:05:51 10° ESE daylight
03 Nov - 19:11:31 10° WSW 19:14:46 24° S 19:18:33 10° SE visible
03 Nov - 21:25:09 10° SW 21:27:21 13° SSW 21:29:55 10° S night (unlit)
04 Nov - 13:49:01 10° S 13:50:38 11° SSE 13:52:07 10° SE daylight
04 Nov - 15:59:27 10° SW 16:03:25 23° S 16:06:39 10° ESE daylight
04 Nov - 18:12:14 10° WSW 18:15:38 26° S 18:19:07 10° SE visible
04 Nov - 20:25:26 10° SW 20:27:58 15° SSW 20:30:55 10° SSE visible
05 Nov - 14:59:43 10° SW 15:04:08 21° SSE 15:07:31 10° ESE daylight
05 Nov - 17:12:44 10° WSW 17:16:32 28° S 17:19:56 10° ESE visible
05 Nov - 19:25:56 10° WSW 19:28:43 18° SSW 19:31:49 10° SSE visible
